Tracking 18840 objects as of 18-November-2017
HD Live streaming from Space Station
objects crossing your sky now

BEIDOU-3 M1

Track BEIDOU-3 M1 now!
BEIDOU-3 M1 is classified as:


NORAD ID: 40748
Int'l Code: 2015-037A
Perigee: 21,514.7 km
Apogee: 21,555.6 km
Inclination: 55.5 °
Period: 773.2 minutes
Semi major axis: 27906 km
RCS: Unknown
Launch date: July 25, 2015
Source: People's Republic of China (PRC)
Launch site: Xichang Space Center, China (XSC)
aabbcc
Your satellite tracking list
Your tracking list is empty




NASA's NSSDC Master Catalog

Two Line Element Set (TLE):
1 40748U 15037A   17322.24154302 -.00000092  00000-0  00000+0 0  9996
2 40748  55.5456  48.2806 0007336 250.7664 195.5968  1.86231393 15771
Source of the keplerian elements: AFSPC